Location: Arbon
(43.0005°N, 0.7472°E)
Time: 11:14:35
(UTC+00:00)

MOS 1 - Pass Details

Date: 22 April 2026
Orbit: 877 x 888 km, 98.8° (Epoch: 15 May)

Event Time Altitude Azimuth Distance (km) Brightness Sun altitude
Exits shadow 20:10:20 11° 164° (SSE) 2,438 6.2 -14.5°
Maximum altitude 20:15:44 90° 259° (W) 886 4.3 -15.3°
Drops below altitude 10° 20:21:26 10° 346° (NNW) 2,549 7.4 -16.1°
Sets 20:23:50 0° 347° (NNW) 3,494 8.2 -16.5°
